User: anonymous   Login
Location: Anjeux
(47.8815°N, 6.2076°E)
Time: 14:09:06
(UTC+00:00)
Language:

NUDT-PHONESAT - Orbit

View from above orbital plane
View from above orbital plane
View from above satellite
View from above satellite

Ground track
Ground track

The orbit data is extracted from the following two-line orbital elements,

1 40900U 15049B   21332.17755189  .00006026  00000-0  22134-3 0  9995
2 40900  97.4146 345.3495 0009439 284.0914 141.0038 15.28264464343810
Epoch (UTC): 28 November 2021 04:15:40
Eccentricity: 0.0009439
inclination: 97.4146°
perigee height: 474 km
apogee height: 487 km
right ascension of ascending node: 345.3495°
argument of perigee: 284.0914°
revolutions per day: 15.28264464
mean anomaly at epoch: 141.0038°
orbit number at epoch: 34381

The dashed part of the orbit path shows where the satellite is in the earth's shadow,  

DLR